Weather History for Saginaw, MI

Change the Weather History Date:

Saturday, March 23, 2013

  Actual Average Record
Temperature  
Mean Temperature 32 °F 36 °F  
Max Temperature 36 °F 45 °F 64 °F (2012)
Min Temperature 28 °F 28 °F 12 °F (2014)
Degree Days  
Heating Degree Days 34    
Month to date heating degree days  
Since 1 July heating degree days  
Cooling Degree Days 0    
Month to date cooling degree days  
Year to date cooling degree days  
Moisture  
Dew Point 22 °F    
Average Humidity 68    
Maximum Humidity 78    
Minimum Humidity 60    
Precipitation  
Precipitation 0.00 in 0.06 in 0.52 in (1997)
Month to date precipitation 1.50  
Year to date precipitation 4.82  
Snow  
Snow 0.00 in - - ()
Month to date snowfall  
Since 1 July snowfall  
Snow Depth -    
Sea Level Pressure  
Sea Level Pressure 30.09 in    
Wind  
Wind Speed 6 mph (NW)    
Max Wind Speed 9 mph    
Max Gust Speed 41 mph    
Visibility 10 miles    
Events      
T = Trace of Precipitation, MM = Missing Value Source: NWS Daily Summary

Daily Weather History Graph

Daily Weather History Graph

Search for Another Location

Airport:

Trip Planner

Search our weather history database for the weather conditions in past years. The results will help you decide how hot, cold, wet, or windy it might be!

Date:

Astronomy

Mar. 23, 2013 Rise Set
Actual Time 7:33 AM EDT 7:52 PM EDT
Civil Twilight 7:05 AM EDT 8:21 PM EDT
Nautical Twilight 6:31 AM EDT 8:54 PM EDT
Astronomical Twilight 5:56 AM EDT 9:29 PM EDT
Moon 4:12 PM EDT (3/23) 5:15 AM EDT (3/23)
Length of Visible Light 13h 16m
Length of Day
12h 18m
Waxing Gibbous, 85% of the Moon is Illuminated
Mar 23
Waxing Gibbous
Mar 27
Full
Apr 3
Last Quarter
Apr 10
New
Apr 18
First Quarter

Hourly Weather History & Observations

Time (EDT) Temp. Windchill Dew Point Humidity Pressure Visibility Wind Dir Wind Speed Gust Speed Precip Events Conditions
12:53 AM 30.9 °F 23.5 °F 23.0 °F 72% 30.05 in 10.0 mi NNW 8.1 mph - N/A   Overcast
1:53 AM 30.0 °F 21.7 °F 21.0 °F 69% 30.06 in 10.0 mi North 9.2 mph - N/A   Overcast
2:53 AM 30.0 °F 23.2 °F 19.9 °F 66% 30.06 in 10.0 mi NW 6.9 mph - N/A   Overcast
3:53 AM 30.0 °F 24.1 °F 21.0 °F 69% 30.06 in 10.0 mi North 5.8 mph - N/A   Overcast
4:53 AM 30.0 °F 22.4 °F 21.0 °F 69% 30.06 in 10.0 mi NW 8.1 mph 41.4 mph N/A   Overcast
5:53 AM 30.0 °F 25.2 °F 21.0 °F 69% 30.06 in 10.0 mi WNW 4.6 mph - N/A   Overcast
6:53 AM 28.9 °F 21.9 °F 21.0 °F 72% 30.06 in 10.0 mi NW 6.9 mph - N/A   Overcast
7:53 AM 28.9 °F 23.9 °F 21.0 °F 72% 30.09 in 10.0 mi NW 4.6 mph - N/A   Overcast
8:53 AM 30.0 °F 25.2 °F 21.0 °F 69% 30.10 in 10.0 mi NNW 4.6 mph - N/A   Overcast
9:53 AM 30.0 °F - 19.9 °F 66% 30.12 in 10.0 mi Calm Calm - N/A   Overcast
10:53 AM 30.9 °F 25.2 °F 21.0 °F 67% 30.12 in 10.0 mi NNW 5.8 mph - N/A   Overcast
11:53 AM 32.0 °F 26.4 °F 21.9 °F 66% 30.13 in 10.0 mi NNW 5.8 mph - N/A   Overcast
12:53 PM 32.0 °F 26.4 °F 21.9 °F 66% 30.14 in 10.0 mi NNE 5.8 mph - N/A   Overcast
1:53 PM 33.1 °F 26.1 °F 23.0 °F 66% 30.14 in 10.0 mi West 8.1 mph - N/A   Overcast
2:53 PM 33.1 °F 30.0 °F 23.0 °F 66% 30.13 in 10.0 mi WNW 3.5 mph - N/A   Overcast
3:53 PM 35.1 °F 31.0 °F 23.0 °F 61% 30.10 in 10.0 mi NW 4.6 mph - N/A   Overcast
4:53 PM 35.1 °F - 23.0 °F 61% 30.10 in 10.0 mi Calm Calm - N/A   Mostly Cloudy
5:04 PM 35.6 °F 32.8 °F 23.0 °F 60% 30.07 in 10.0 mi WNW 3.5 mph - N/A   Mostly Cloudy
5:53 PM 35.1 °F 32.2 °F 23.0 °F 61% 30.12 in 10.0 mi Variable 3.5 mph - N/A   Overcast
6:53 PM 35.1 °F - 23.0 °F 61% 30.10 in 10.0 mi Calm Calm - N/A   Partly Cloudy
7:53 PM 33.1 °F 26.9 °F 24.1 °F 70% 30.10 in 10.0 mi SW 6.9 mph - N/A   Clear
8:53 PM 30.9 °F 24.3 °F 24.1 °F 76% 30.11 in 10.0 mi SW 6.9 mph - N/A   Clear
9:53 PM 30.2 °F 25.4 °F 23.0 °F 75% 30.09 in 10.0 mi SW 4.6 mph - N/A   Clear
10:53 PM 28.0 °F - 21.9 °F 78% 30.09 in 10.0 mi Calm Calm - N/A   Clear
11:53 PM 28.0 °F 24.2 °F 21.9 °F 78% 30.09 in 10.0 mi SW 3.5 mph - N/A   Clear